TimeCDT,TemperatureF,Dew PointF,Humidity,Sea Level PressureIn,VisibilityMPH,Wind Direction,Wind SpeedMPH,Gust SpeedMPH,PrecipitationIn,Events,Conditions,WindDirDegrees,DateUTC
12:54 AM,55.0,42.1,62,29.78,10.0,South,3.5,-,N/A,,Mostly Cloudy,170,2013-04-29 05:54:00
1:54 AM,55.9,42.1,60,29.78,10.0,Calm,Calm,-,0.00,Rain,Light Rain,0,2013-04-29 06:54:00
2:54 AM,53.1,46.9,80,29.78,10.0,Calm,Calm,-,0.01,Rain,Light Rain,0,2013-04-29 07:54:00
3:54 AM,52.0,48.0,86,29.78,4.0,Calm,Calm,-,0.12,Rain,Rain,0,2013-04-29 08:54:00
4:54 AM,51.1,48.9,92,29.79,5.0,SE,5.8,-,0.08,Rain,Light Rain,130,2013-04-29 09:54:00
5:54 AM,51.1,48.9,92,29.78,6.0,Calm,Calm,-,0.01,,Mostly Cloudy,0,2013-04-29 10:54:00
6:54 AM,52.0,50.0,93,29.80,7.0,Calm,Calm,-,N/A,,Scattered Clouds,0,2013-04-29 11:54:00
7:54 AM,54.0,48.9,83,29.80,8.0,Calm,Calm,-,N/A,,Overcast,0,2013-04-29 12:54:00
8:54 AM,54.0,51.1,90,29.79,6.0,SSE,5.8,-,N/A,,Overcast,160,2013-04-29 13:54:00
9:54 AM,57.0,51.1,81,29.79,9.0,Calm,Calm,-,N/A,,Overcast,0,2013-04-29 14:54:00
10:54 AM,61.0,52.0,72,29.79,10.0,SSW,3.5,-,N/A,,Partly Cloudy,200,2013-04-29 15:54:00
11:54 AM,64.9,52.0,63,29.78,10.0,South,10.4,-,N/A,,Partly Cloudy,170,2013-04-29 16:54:00
12:54 PM,66.0,52.0,60,29.77,10.0,South,8.1,-,N/A,,Mostly Cloudy,190,2013-04-29 17:54:00
1:54 PM,69.1,51.1,53,29.73,10.0,South,5.8,-,N/A,,Overcast,170,2013-04-29 18:54:00
2:54 PM,70.0,50.0,49,29.72,10.0,SSW,11.5,-,N/A,,Mostly Cloudy,200,2013-04-29 19:54:00
3:54 PM,71.1,48.9,45,29.71,10.0,South,9.2,-,N/A,,Mostly Cloudy,180,2013-04-29 20:54:00
4:54 PM,71.1,51.1,49,29.70,10.0,South,12.7,-,N/A,,Overcast,170,2013-04-29 21:54:00
5:54 PM,70.0,53.1,55,29.70,10.0,South,12.7,-,N/A,,Mostly Cloudy,170,2013-04-29 22:54:00
6:54 PM,68.0,51.1,55,29.70,10.0,South,12.7,-,N/A,,Overcast,170,2013-04-29 23:54:00
7:54 PM,64.9,51.1,61,29.70,10.0,South,13.8,-,N/A,,Partly Cloudy,190,2013-04-30 00:54:00
8:54 PM,63.0,48.9,60,29.72,10.0,SSE,9.2,-,N/A,,Mostly Cloudy,160,2013-04-30 01:54:00
9:54 PM,61.0,48.9,64,29.71,10.0,SE,8.1,-,N/A,,Mostly Cloudy,140,2013-04-30 02:54:00
10:54 PM,60.1,50.0,69,29.71,10.0,SE,5.8,-,N/A,,Mostly Cloudy,130,2013-04-30 03:54:00
11:54 PM,59.0,50.0,72,29.70,10.0,ESE,5.8,-,N/A,,Mostly Cloudy,110,2013-04-30 04:54:00